FloripaSat 1
1 44885U 19093G   25209.82158976  .00004273  00000-0  35801-3 0  9991
2 44885  97.8161 297.5380 0011231  42.3509 317.8578 14.98907403304122
RS-44
1 44909U 19096E   25209.41708185  .00000006  00000-0 -21663-4 0  9992
2 44909  82.5205 194.8309 0217375 181.0869 178.9790 12.79742184260938
UPMSat 2
1 46276U 20061E   25209.76727170  .00091590  00000-0  59677-3 0  9990
2 46276  97.2392 286.0285 0001462 157.4760 202.6570 15.75634141273194
SALSAT
1 46495U 20068K   25209.49724726  .00007074  00000-0  30079-3 0  9993
2 46495  97.8636 189.8134 0010919   2.4929 357.6359 15.23319562265973
CubeSX-Sirius-HSE
1 47951U 21022V   25157.62701764  .07883385  25648-5  89537-3 0  9993
2 47951  97.4004  72.1904 0010275 223.9924 136.0557 16.36879307233400
CubeSX-HSE
1 47952U 21022W   25157.69972699  .06655353  25454-5  93288-3 0  9992
2 47952  97.3980  72.5414 0010307 219.3637 140.6911 16.34906352233436
GRBAlpha
1 47959U 21022AD  25160.45426279  .07940347  25506-5  90589-3 0  9995
2 47959  97.3899  75.6235 0011032 227.2558 132.7812 16.36806138232695
TUBIN
1 48900U 21059X   25209.84640367  .00047050  00000-0  48817-3 0  9991
2 48900  97.6773  23.2289 0003160  61.1767 298.9808 15.64525346227732
LEDSAT
1 49069U 21073D   25209.76901881  .00087746  00000-0  80679-3 0  9994
2 49069  97.3854 293.5859 0008426 242.9617 117.0784 15.67367944219123
CUTE
1 49263U 21088D   25209.74826697  .00013603  00000-0  25109-3 0  9993
2 49263  97.4481 287.4910 0008000  67.8444 292.3655 15.49191950212035
TeikyoSat 4
1 49396U 21102B   25209.59626805  .00002046  00000-0  13750-3 0  9997
2 49396  97.4069 246.2529 0011605 331.8612  28.1988 15.07811427203934
Z-Sat
1 49399U 21102E   25209.83843298  .00003695  00000-0  20217-3 0  9991
2 49399  97.3768 249.8914 0016274 295.3640  64.5907 15.14754337204436
KOSEN 1
1 49402U 21102H   25209.63134434  .00005644  00000-0  25825-3 0  9995
2 49402  97.3670 253.4821 0013944 266.2262  93.7380 15.20831194204746
HO-113
1 50466U 21131B   25209.85790964  .00000539  00000-0  18197-3 0  9991
2 50466  98.5106 298.9709 0003976   6.1435 353.9802 14.40861659188540
Foresail-1
1 52766U 22057AL  25176.64799660  .13857605  27391-5  25307-3 0  9992
2 52766  97.5832 331.2310 0012137 233.7199 258.4922 16.46795272172486
SNUGLITE 2
1 52899U 22065F   25209.86137909  .00001061  00000-0  21489-3 0  9994
2 52899  98.1752 351.3736 0006757 327.1148  32.9632 14.63306790163695
UmKA 1 (RS40S)
1 57172U 23091G   25209.86030944  .00004976  00000-0  26336-3 0  9998
2 57172  97.5544 264.9916 0014989 158.5901 201.5962 15.15804726114948
CubeBel-2 (EU11S)
1 57175U 23091K   25209.82251867  .00008526  00000-0  39740-3 0  9994
2 57175  97.5543 266.4096 0012627 163.9741 196.1896 15.20064548115037
VERONIKA
1 58261U 23174F   25209.83802039  .00419022  68503-4  13418-2 0  9993
2 58261  97.4029 299.5855 0008221 237.0360 123.0124 15.90954266 96456
ENSO
1 58470U 23185J   25209.82681684  .00066719  00000-0  79229-3 0  9995
2 58470  97.3696 286.6943 0005916 244.7929 115.2716 15.60948405 92705
EIRSAT-1
1 58472U 23185L   25209.63193718  .00195908  00000-0  10405-2 0  9995
2 58472  97.3617 289.4658 0006393 239.6434 120.4201 15.79934151 92876
SONATE-2
1 59112U 24043Q   25209.60136832  .00014930  00000-0  41248-3 0  9997
2 59112  97.5197 341.8252 0009572 301.7085  58.3225 15.37108069 77863
MO-122
1 60209U 24125G   25209.53797908  .00015926  00000-0  43164-3 0  9991
2 60209  97.2744  60.6446 0016830 325.6896  34.3260 15.37582845 59476
GRBBeta
1 60237U 24128C   25209.64092304  .00003076  00000-0  23595-3 0  9994
2 60237  61.9905 268.4523 0055125  67.9446 292.7487 15.02976926 57574
Curium One
1 60242U 24128H   25209.85825726  .00005193  00000-0  36003-3 0  9995
2 60242  61.9799 265.2330 0055155  64.2544 296.4226 15.05701705 57659
ROBUSTA-3A
1 60243U 24128J   25209.61070962  .00004824  00000-0  34028-3 0  9999
2 60243  61.9872 267.0950 0054176  61.8553 298.7998 15.05219078 57608
CatSat
1 60246U 24125J   25209.58693071  .00014972  00000-0  48579-3 0  9998
2 60246  97.2548  59.3350 0039907 279.6994  79.9741 15.31268887 57484
HYPERVIEW-1G (RS66S)
1 61772U 24199AP  25209.85140669  .00020726  00000-0  56850-3 0  9999
2 61772  97.3462  78.6469 0013403  24.8124 335.3762 15.37211436 84529
AO-123
1 61781U 24199AY  25209.87157548  .00006283  00000-0  22552-3 0  9999
2 61781  97.3481  76.9932 0016383  29.2622 330.9532 15.28912281 84418
ZIMSAT 2
1 61783U 24199BA  25209.84639448  .00038029  00000-0  83573-3 0  9995
2 61783  97.3430  79.6748 0012350  22.2636 337.9145 15.43835661 87746
HADES-R (SO-124)
1 62690U 25009CK  25209.18555292  .00034680  00000-0  11184-2 0  9992
2 62690  97.4072 289.8949 0001878 251.5583 108.5455 15.32078643 29587
HYDRA-T
1 62692U 25009CM  25209.16179173  .00038189  00000-0  12178-2 0  9994
2 62692  97.4073 289.9260 0001774 246.8328 113.2727 15.32417843 29580
JINJUSat 1B
1 63210U 25052A   25209.67089521  .00009835  00000-0  43930-3 0  9999
2 63210  97.4350 103.1866 0005575 133.3351 226.8350 15.21536233 20715
NUSHSAT 1
1 63211U 25052B   25209.59120501  .00012049  00000-0  53229-3 0  9998
2 63211  97.4337 103.1223 0005432 137.6172 222.5485 15.21862858 20704
TEVEL2-4
1 63213U 25052D   25209.68073065  .00010166  00000-0  45416-3 0  9999
2 63213  97.4254 103.0109 0004248 145.7097 214.4414 15.21526855 20713
TEVEL2-5
1 63214U 25052E   25209.61626983  .00010061  00000-0  44990-3 0  9996
2 63214  97.4255 102.9447 0004236 145.7703 214.3807 15.21498394 20709
TEVEL2-6
1 63215U 25052F   25209.61970725  .00010097  00000-0  45199-3 0  9994
2 63215  97.4256 102.9422 0004304 146.9958 213.1547 15.21458647 20700
TEVEL2-1
1 63217U 25052H   25209.63796590  .00010487  00000-0  47251-3 0  9998
2 63217  97.4235 102.8741 0003993 158.3162 201.8243 15.21227950 20707
TEVEL2-2
1 63218U 25052J   25209.63821122  .00010578  00000-0  47654-3 0  9997
2 63218  97.4233 102.8755 0004047 159.4645 200.6754 15.21231437 20709
TEVEL2-3
1 63219U 25052K   25209.70431830  .00010653  00000-0  47995-3 0  9991
2 63219  97.4234 102.9392 0004010 159.0575 201.0826 15.21225247 20715
TEVEL2-8
1 63237U 25052AD  25209.61162779  .00009277  00000-0  43363-3 0  9999
2 63237  97.4297 102.7184 0007559 189.3330 170.7766 15.19979451 20688
TEVEL2-9
1 63238U 25052AE  25209.68190385  .00008907  00000-0  41732-3 0  9998
2 63238  97.4297 102.7804 0007650 189.3153 170.7941 15.19908906 20696
TEVEL2-7
1 63239U 25052AF  25209.61909218  .00009190  00000-0  43087-3 0  9995
2 63239  97.4298 102.7100 0007614 189.7582 170.3506 15.19876310 20682
HYDRA-W
1 63490U 25052BL  25208.66551952  .00026939  00000-0  10670-2 0  9997
2 63490  97.4246 102.3628 0010989 191.0583 169.0415 15.25337110 20581
HADES-ICM (SO-125)
1 63492U 25052BN  25208.69584795  .00024301  00000-0  97933-3 0  9992
2 63492  97.4252 102.3325 0011087 195.1951 164.8955 15.24777843 20580
